Current Version              Previous Version:    01  02  03  04  05  06  07  08  09  10  11  12  13  14  15  16  17  18  19  20  21  22  23  24  25  26  27  28  29  30  
   31  32  33  34  35  36  37  38  39  40  41  42  43  44  45  46  47  48  49  50  51  52  53  54  55  56  57  58  59  60  

[Printable]
553
ASUS44 KEWX 280910
RWRTX
SOUTH TEXAS REGIONAL WEATHER ROUNDUP
NATIONAL WEATHER SERVICE AUSTIN/SAN ANTONIO TX
400 AM CDT MON JUL 28 2014

NOTE: "FAIR" INDICATED FEW OR NO CLOUDS BELOW 12,000 FEET WITH NO
SIGNIFICANT WEATHER AND/OR OBSTRUCTIONS TO VISIBILITY.

* - THESE STATIONS ARE NOT NWS OR FAA STATIONS...AND ARE NOT SUBJECT
    TO NWS AND FAA QUALITY CONTROL.

TXZ171-172-183>190-281000-
TEXAS HILL COUNTRY AND EDWARDS PLATEAU

CITY           SKY/WX    TMP DP  RH WIND       PRES   REMARKS
JUNCTION       CLEAR     79  70  74 S5        30.09S
*LLANO         CLEAR     79  66  65 CALM      30.10R
BURNET         CLEAR     78  66  66 S3        30.09S
*HORSESHOE BAY CLEAR     78  64  61 CALM      30.07R
*KERRVILLE     CLEAR     76  70  82 SE5       30.11S
*FREDERICKSBRG CLEAR     76  66  71 SW3       30.10S
*ROCKSPRINGS   CLEAR     75  68  78 SE8       30.14F
*BOERNE STAGE  CLEAR     73  66  78 S3        30.11R
*CASTROVILLE   CLEAR     76  68  76 E3        30.08S
HONDO          CLEAR     77  70  79 SE9       30.08S
*UVALDE        CLEAR     78  72  81 E3        30.07S
DEL RIO        CLEAR     84  68  58 E10G18    30.03R
LAUGHLIN AFB   CLEAR     82  69  63 E10       30.04R
CARRIZO SPRGS  CLEAR     79  64  61 SE6       30.02S
$$

TXZ173-191>194-202-209-217>225-228-281000-
CENTRAL AND SOUTH CENTRAL TEXAS

CITY           SKY/WX    TMP DP  RH WIND       PRES   REMARKS
GEORGETOWN     CLEAR     79  70  73 S7        30.07S
AUSTIN/BERGSTM CLEAR     73  72  96 S7        30.06R
AUSTIN/MABRY   CLEAR     77  71  82 VRB6      30.07R
*AUSTIN/EXEC   MOCLDY    75  72  88 SW7       30.06F
*LAGO VISTA    CLEAR     78  68  72 S6        30.09R
SAN MARCOS     CLEAR     73  66  78 S5        30.08F
NEW BRAUNFELS  CLEAR     72  70  93 CALM      30.06S
RANDOLPH AFB   CLEAR     74  69  84 S3        30.08S
PT SAN ANTONIO CLEAR     76  71  82 SE6       30.06S
SAN ANTONIO    CLEAR     77  71  82 S8        30.07S
STINSON FIELD  CLEAR     76  70  82 SE5       30.05S
*PLEASANTON    CLEAR     74  70  88 CALM      30.06S
*LA GRANGE     CLEAR     76  75  96 CALM      30.04S
*GIDDINGS      CLEAR     76  72  88 CALM      30.09S
*GONZALES      CLEAR     75  74  97 S3        30.05S
$$

TXZ163>164-176>182-195>201-210>213-226-227-235-281000-
SOUTHEAST TEXAS

CITY           SKY/WX    TMP DP  RH WIND       PRES   REMARKS
COLLEGE STN    CLEAR     77  73  87 S3        30.04F
*BRYAN         CLEAR     76  73  88 CALM      30.04S
*CALDWELL      CLEAR     75  73  94 SW5       30.08R
*CROCKETT      CLEAR     79  77  94 SW5       30.08R
*BRENHAM       CLEAR     77  74  90 CALM      30.05S
HUNTSVILLE     CLEAR     78  74  87 SW5       30.05S
CONROE         CLEAR     79  76  90 SW5       30.06S
HOUSTON BUSH   PTCLDY    80  75  84 CALM      30.05R
HOUSTON HOBBY  CLEAR     78  76  93 SW3       30.03F
*HOUSTON SW AP FOG       72  72 100 CALM      30.05S VSB<1/4
PEARLAND       CLEAR     78  75  90 VRB3      30.05S
HOUSTON HOOKS  CLEAR     79  77  94 CALM      30.05S
ELLINGTON FLD  PTCLDY    81  75  83 SW5       30.06S
SUGAR LAND     CLEAR     78  75  90 SW5       30.04S
*HOUSTON EXEC  CLEAR     75  75 100 S3        30.06R
*CLEVELAND MUN CLEAR     75  74  97 CALM      30.06R FOG
*WHARTON         N/A     74  73  97 CALM      30.05F
$$

TXZ214>216-236>238-281000-
THE UPPER TEXAS COAST

CITY           SKY/WX    TMP DP  RH WIND       PRES   REMARKS
*ORANGE        CLEAR     79  79 100 SW3       30.06R
PORT ARTHUR    CLEAR     78  76  93 SW3       30.04R
GALVESTON      CLEAR     81  77  88 SW7       30.05S
ANGLETON       CLEAR     74  73  97 S3        30.04F
*BAY CITY      CLEAR     76  76 100 S5        30.04F FOG
PALACIOS       PTCLDY    82  76  81 S8        30.05R
$$

TXZ229>234-239>247-281000-
TEXAS COASTAL BEND AND RIO GRANDE PLAINS

CITY           SKY/WX    TMP DP  RH WIND       PRES   REMARKS
VICTORIA       CLEAR     77  75  93 S6        30.06R
*BEEVILLE      CLEAR     77  77 100 S6        30.05S
ROCKPORT       CLEAR     82  77  84 S9        30.03S HX  90
*PORT ARANSAS  PTCLDY    79  77  94 S7        30.04S
*PORT LAVACA   CLEAR     76  75  96 S5        30.05S
*INGLESIDE     CLEAR     82  78  87 S8        30.03F HX  91
CORPUS CHRISTI PTCLDY    76  74  93 S7        30.04S
CORPUS NAS     CLEAR     81  78  91 S9        30.04S
*ROBSTOWN      NOT AVBL
ALICE          CLEAR     77  75  93 SE6       30.04S
KINGSVILLE NAS CLEAR     80  78  94 SE9       30.03F
COTULLA        PTCLDY    77  71  82 SE12      30.03F
*FAITH RANCH   CLEAR     82  64  54 SE8       30.02F
LAREDO         CLEAR     81  73  76 SE10      30.04S
$$

TXZ248>255-281000-
DEEP SOUTH TEXAS

CITY           SKY/WX    TMP DP  RH WIND       PRES   REMARKS
BROWNSVILLE    CLEAR     80  78  94 SE6       30.03S
PORT ISABEL    CLEAR     82  77  84 SE9       30.03R HX  90
*SOUTH PADRE     N/A     79  77  94 SE7       30.03S
HARLINGEN      PTCLDY    79  77  94 SE6       30.02S
*HEBBRONVILLE  PTCLDY    79  73  84 SE9       30.05F
MCALLEN        CLEAR     80  77  90 SE8       30.03R
*WESLACO       MOCLDY    80  74  84 SE6       30.03S
FALFURRIAS     CLEAR     61  32  33 SE3       30.03S
EDINBURG       CLEAR     80  75  85 SE6       30.03S
*ZAPATA        NOT AVBL
$$

TXZ213>215-236>238-242>244-246-247-251-254-255-281000-
CMAN STATIONS

STATION/POSITION TIME  TEMP    WIND        PRES    WAVE
                       AIR SEA DIR/SP/G            HT/PER
                 (UTC) (F)     (DEG/KT/KT) (MB)    (FT/S)
SABINE PASS      0900   81 87  240/  4/  6 1017.3
SEA RIM ST PARK  0900   81     270/  5/  6 1017.8
NORTH JETTY/GLS  0900   83 91  240/  9/ 11   N/A
EAGLE POINT      0900   81 87  250/  6/  8 1017.3
MORGANS POINT    0900   81 91  240/  3/  5 1017.1
MISSION/ARANSAS  0800   82     160/ 13     1018.0
PORT O`CONNOR    0900          180/ 12/ 13   N/A
PORT ARANSAS     0900   80 82  170/  8/  9 1017.7
MALAQUITE BEACH  0900   79 75  160/  6/  6 1016.5
BAFFIN BAY       0900   80 80  160/ 11/ 13 1017.0
PORT ISABEL      0900   81 81  150/  6/  8 1017.3
$$

GMZ080-GMZ150>470-281000-
OFFSHORE BUOY REPORTS

STATION/POSITION TIME  TEMP    WIND        PRES    WAVE
                       AIR SEA DIR/SP/G            HT/PER
                 (UTC) (F)     (DEG/KT/KT) (MB)    (FT/S)
20 E GALVESTON   0900   84     220/ 12     1016.9
90 E PT ARANSAS  0900   83 83  180/ 10/ 12 1017.9    3/ 6
35 NE PT MANSFLD 0900   84 84  160/ 16/ 17 1016.9    4/ 5
200 E PT ISABEL  0900   84 86  170/  8/ 12 1017.6    1/ 5
$$